Location: Peebles
(55.6412°N, 3.1714°W)
Time: 17:56:45
(UTC+01:00)

USA 281 - Pass Details

Date: 28 January 2022
Orbit: 1070 x 1089 km, 106.0° (Epoch: 25 March)

Event Time Altitude Azimuth Distance (km) Brightness Sun altitude
Rises 05:09:23 0° 36° (NE) 3,902 6.7 -25.6°
Reaches altitude 10° 05:12:23 10° 24° (NNE) 2,946 5.8 -25.2°
Maximum altitude 05:17:26 24° 334° (NNW) 2,084 4.5 -24.5°
Enters shadow 05:17:59 24° 326° (NNW) 2,095 4.4 -24.4°
